GRL1700 BGGH-KIAD

Flight info

Callsign GRL1700
Flight time N/A
Altitude 40000
Route SINGA/N0467F400 DCT TAVMI DCT TEGOC DCT SYR J59 PSB WAYNZ1
Aircraft A332/H-SDE3GHIJ2J3J5M1RVWXY/LB2D1

Departure

Time 2026-05-04 18:19
Airport Nuuk International Airport (BGGH)

Arrival

Time N/A
Airport Washington Dulles International Airport (KIAD)
Time Latitude Longitude Altitude Speed Heading
2026-05-04 17:52 64.18552 -51.67756 285 ft 0 kts 148°
2026-05-04 18:11 64.18561 -51.67769 285 ft 4 kts 148°
2026-05-04 18:11 64.18584 -51.67803 285 ft 4 kts 147°
2026-05-04 18:11 64.18604 -51.67832 285 ft 4 kts 132°
2026-05-04 18:11 64.18612 -51.67877 285 ft 4 kts 65°
2026-05-04 18:12 64.18595 -51.67917 289 ft 4 kts 26°
2026-05-04 18:12 64.18572 -51.67938 285 ft 2 kts 18°
2026-05-04 18:12 64.18570 -51.67940 285 ft 0 kts 18°
2026-05-04 18:14 64.18573 -51.67937 287 ft 1 kts 18°
2026-05-04 18:14 64.18577 -51.67934 285 ft 1 kts 18°
2026-05-04 18:15 64.18624 -51.67977 290 ft 2 kts 292°
2026-05-04 18:15 64.18624 -51.67983 285 ft 0 kts 291°
2026-05-04 18:16 64.18629 -51.68015 285 ft 7 kts 287°
2026-05-04 18:16 64.18652 -51.68197 286 ft 13 kts 278°
2026-05-04 18:16 64.18616 -51.68283 286 ft 12 kts 202°
2026-05-04 18:17 64.18335 -51.68473 285 ft 30 kts 199°
2026-05-04 18:17 64.18178 -51.68517 284 ft 17 kts 184°
2026-05-04 18:17 64.18167 -51.68601 283 ft 2 kts 336°
2026-05-04 18:18 64.18196 -51.68597 284 ft 0 kts 17°
2026-05-04 18:18 64.18305 -51.68520 284 ft 47 kts 18°
2026-05-04 18:18 64.18822 -51.68134 285 ft 107 kts 18°
2026-05-04 18:18 64.19683 -51.67503 429 ft 143 kts 18°
2026-05-04 18:19 64.21570 -51.66115 1747 ft 139 kts 15°
2026-05-04 18:19 64.22553 -51.66348 2094 ft 161 kts 331°
2026-05-04 18:19 64.23259 -51.68616 2292 ft 193 kts 282°
2026-05-04 18:20 64.23008 -51.71759 2449 ft 222 kts 237°
2026-05-04 18:20 64.21768 -51.74251 2725 ft 248 kts 205°
2026-05-04 18:20 64.20148 -51.75548 3461 ft 251 kts 192°
2026-05-04 18:20 64.18435 -51.76299 4400 ft 251 kts 188°
2026-05-04 18:21 64.16779 -51.77605 5314 ft 255 kts 206°
2026-05-04 18:21 64.15301 -51.79905 6230 ft 260 kts 217°
2026-05-04 18:21 64.13961 -51.82737 7126 ft 264 kts 223°
2026-05-04 18:21 64.12698 -51.85828 8041 ft 268 kts 225°
2026-05-04 18:22 64.11448 -51.89038 8941 ft 272 kts 226°
2026-05-04 18:22 64.10180 -51.92278 9819 ft 275 kts 226°
2026-05-04 18:22 64.08869 -51.95544 10528 ft 286 kts 225°
2026-05-04 18:22 64.07452 -51.98976 10866 ft 308 kts 225°
2026-05-04 18:23 64.05930 -52.02586 11384 ft 321 kts 225°
2026-05-04 18:23 64.04353 -52.06280 12102 ft 327 kts 225°
2026-05-04 18:23 64.02752 -52.10012 12880 ft 331 kts 225°
2026-05-04 18:23 64.01135 -52.13770 13662 ft 333 kts 225°
2026-05-04 18:24 63.99505 -52.17558 14416 ft 336 kts 225°
2026-05-04 18:24 63.97861 -52.21371 15159 ft 339 kts 225°
2026-05-04 18:24 63.96202 -52.25210 15863 ft 341 kts 225°
2026-05-04 18:24 63.94533 -52.29076 16562 ft 344 kts 225°
2026-05-04 18:25 63.92849 -52.32972 17211 ft 346 kts 225°
2026-05-04 18:25 63.91151 -52.36885 17861 ft 349 kts 225°
2026-05-04 18:25 63.89441 -52.40818 18514 ft 351 kts 225°
2026-05-04 18:25 63.87722 -52.44766 19157 ft 352 kts 226°
2026-05-04 18:26 63.85998 -52.48718 19776 ft 353 kts 226°
2026-05-04 18:26 63.84264 -52.52687 20368 ft 355 kts 227°
2026-05-04 18:26 63.82520 -52.56669 20962 ft 357 kts 227°
2026-05-04 18:26 63.80767 -52.60665 21543 ft 358 kts 227°
2026-05-04 18:27 63.79008 -52.64666 22115 ft 359 kts 228°
2026-05-04 18:27 63.77242 -52.68675 22667 ft 361 kts 228°
2026-05-04 18:27 63.75469 -52.72708 23220 ft 362 kts 229°
2026-05-04 18:27 63.73690 -52.76741 23760 ft 364 kts 229°
2026-05-04 18:28 63.71898 -52.80784 24285 ft 365 kts 229°
2026-05-04 18:28 63.70096 -52.84836 24794 ft 367 kts 229°
2026-05-04 18:28 63.68284 -52.88905 25233 ft 369 kts 229°
2026-05-04 18:28 63.66459 -52.93015 25671 ft 372 kts 229°
2026-05-04 18:29 63.64623 -52.97151 26094 ft 374 kts 229°
2026-05-04 18:29 63.62775 -53.01292 26526 ft 376 kts 229°
2026-05-04 18:29 63.60913 -53.05450 26902 ft 379 kts 229°
2026-05-04 18:29 63.59039 -53.09628 27290 ft 381 kts 229°